Weather History for Hyeres, France

Change the Weather History Date:

Tuesday, November 12, 2013

  Actual Average Record
Temperature  
Mean Temperature 57 °F -  
Max Temperature 68 °F 58 °F 68 °F (2006)
Min Temperature 46 °F 45 °F 42 °F (1998)
Degree Days  
Heating Degree Days 8    
Growing Degree Days 7 (Base 50)    
Moisture  
Dew Point 32 °F    
Average Humidity 43    
Maximum Humidity 76    
Minimum Humidity 24    
Precipitation  
Precipitation 0.00 in - - ()
Sea Level Pressure  
Sea Level Pressure 30.01 in    
Wind  
Wind Speed 7 mph ()    
Max Wind Speed 12 mph    
Max Gust Speed -    
Visibility 6.1 miles    
Events      
Averages and records for this station are not official NWS values.
T = Trace of Precipitation, MM = Missing Value Source: Averaged Metar Reports

Daily Weather History Graph

Daily Weather History Graph

Search for Another Location

Airport:

Trip Planner

Search our weather history database for the weather conditions in past years. The results will help you decide how hot, cold, wet, or windy it might be!

Date:

Astronomy

Nov. 12, 2013 Rise Set
Actual Time 7:24 AM CET 5:14 PM CET
Civil Twilight 6:53 AM CET 5:44 PM CET
Nautical Twilight 6:19 AM CET 6:19 PM CET
Astronomical Twilight 5:46 AM CET 6:52 PM CET
Moon 2:27 PM CET (11/12) 1:48 AM CET (11/12)
Length of Visible Light 10h 51m
Length of Day
9h 50m
Waxing Gibbous, 74% of the Moon is Illuminated
Nov 12
Waxing Gibbous
Nov 17
Full
Nov 25
Last Quarter
Dec 3
New
Dec 9
First Quarter

Hourly Weather History & Observations

Time (CET) Temp. Windchill Dew Point Humidity Pressure Visibility Wind Dir Wind Speed Gust Speed Precip Events Conditions
12:00 AM 53.6 °F - 24.8 °F 33% 30.01 in 6.2 mi NNW 6.9 mph - N/A   Unknown
12:30 AM 53.6 °F - 24.8 °F 33% 30.01 in 6.2 mi NW 8.1 mph - N/A   Unknown
1:00 AM 53.6 °F - 24.8 °F 33% 30.01 in 6.2 mi NNW 11.5 mph - N/A   Unknown
1:30 AM 53.6 °F - 24.8 °F 33% 30.01 in 6.2 mi NW 11.5 mph - N/A   Unknown
2:00 AM 51.8 °F - 24.8 °F 35% 29.98 in 6.2 mi NNW 10.4 mph - N/A   Unknown
2:30 AM 51.8 °F - 24.8 °F 35% 30.01 in 6.2 mi NNW 10.4 mph - N/A   Unknown
3:00 AM 51.8 °F - 24.8 °F 35% 29.98 in 6.2 mi NNW 10.4 mph - N/A   Unknown
3:30 AM 51.8 °F - 23.0 °F 33% 29.98 in 6.2 mi NNW 6.9 mph - N/A   Unknown
4:00 AM 53.6 °F - 23.0 °F 30% 29.98 in 6.2 mi NW 6.9 mph - N/A   Unknown
4:30 AM 50.0 °F - 24.8 °F 37% 29.98 in 6.2 mi NW 8.1 mph - N/A   Unknown
5:00 AM 50.0 °F - 24.8 °F 37% 30.01 in 6.2 mi NNW 5.8 mph - N/A   Unknown
5:30 AM 48.2 °F - 24.8 °F 40% 30.01 in 6.2 mi NW 8.1 mph - N/A   Unknown
6:00 AM 53.6 °F - 23.0 °F 30% 29.98 in 6.2 mi NW 8.1 mph - N/A   Unknown
6:30 AM 50.0 °F - 24.8 °F 37% 30.01 in 6.2 mi NW 3.5 mph - N/A   Unknown
7:00 AM 46.4 °F 42.9 °F 24.8 °F 43% 30.01 in 6.2 mi NW 6.9 mph - N/A   Unknown
7:30 AM 48.2 °F - 26.6 °F 43% 30.01 in 6.2 mi WNW 9.2 mph - N/A   Unknown
8:00 AM 51.8 °F - 26.6 °F 38% 30.01 in 6.2 mi NW 10.4 mph - N/A   Unknown
8:30 AM 55.4 °F - 26.6 °F 33% 30.04 in 6.2 mi NW 9.2 mph - N/A   Unknown
9:00 AM 57.2 °F - 26.6 °F 31% 30.04 in 6.2 mi NW 8.1 mph - N/A   Unknown
9:30 AM 59.0 °F - 26.6 °F 29% 30.04 in 6.2 mi NW 8.1 mph - N/A   Unknown
10:00 AM 62.6 °F - 28.4 °F 27% 30.04 in 6.2 mi NW 8.1 mph - N/A   Unknown
10:30 AM 64.4 °F - 26.6 °F 24% 30.04 in 6.2 mi WNW 6.9 mph - N/A   Unknown
11:00 AM 66.2 °F - 28.4 °F 24% 30.06 in 6.2 mi West 3.5 mph - N/A   Unknown
11:30 AM 68.0 °F - 37.4 °F 33% 30.04 in 6.2 mi WNW 4.6 mph - N/A   Unknown
12:00 PM 68.0 °F - 37.4 °F 33% 30.04 in 6.2 mi SW 5.8 mph - N/A   Unknown
12:30 PM 68.0 °F - 35.6 °F 30% 30.01 in 6.2 mi SW 6.9 mph - N/A   Unknown
1:00 PM 64.4 °F - 44.6 °F 49% 30.01 in 0.0 mi SSW 10.4 mph - N/A   Unknown
1:30 PM 66.2 °F - 46.4 °F 49% 30.01 in 6.2 mi SSW 9.2 mph - N/A   Unknown
2:00 PM 64.4 °F - 46.4 °F 52% 30.01 in 6.2 mi SSW 9.2 mph - N/A   Unknown
2:30 PM 66.2 °F - 44.6 °F 46% 30.01 in 6.2 mi SSW 8.1 mph - N/A   Unknown
3:00 PM 64.4 °F - 37.4 °F 37% 30.01 in 6.2 mi SSW 8.1 mph - N/A   Unknown
3:30 PM 64.4 °F - 33.8 °F 32% 30.01 in 6.2 mi SSW 9.2 mph - N/A   Unknown
4:00 PM 64.4 °F - 28.4 °F 26% 30.01 in 6.2 mi SSW 6.9 mph - N/A   Unknown
4:30 PM 64.4 °F - 32.0 °F 30% 30.01 in 6.2 mi South 4.6 mph - N/A   Unknown
5:00 PM 62.6 °F - 33.8 °F 34% 30.01 in - Calm Calm - N/A   Unknown
5:30 PM 59.0 °F - 41.0 °F 51% 30.01 in 6.2 mi West 3.5 mph - N/A   Unknown
6:00 PM 53.6 °F - 35.6 °F 51% 30.01 in 6.2 mi NNW 2.3 mph - N/A   Unknown
6:30 PM 51.8 °F - 37.4 °F 58% 30.01 in 6.2 mi Variable 2.3 mph - N/A   Unknown
7:00 PM 53.6 °F - 37.4 °F 54% 30.01 in 6.2 mi Variable 2.3 mph - N/A   Unknown
7:30 PM 50.0 °F - 37.4 °F 62% 30.01 in 6.2 mi Variable 2.3 mph - N/A   Unknown
8:00 PM 50.0 °F - 35.6 °F 58% 30.01 in 6.2 mi Calm Calm - N/A   Unknown
8:30 PM 46.4 °F - 37.4 °F 71% 30.01 in 6.2 mi NE 2.3 mph - N/A   Unknown
9:00 PM 46.4 °F 44.3 °F 37.4 °F 71% 30.01 in 6.2 mi NNE 4.6 mph - N/A   Unknown
9:30 PM 46.4 °F 44.3 °F 39.2 °F 76% 30.01 in 6.2 mi North 4.6 mph - N/A   Unknown
10:00 PM 46.4 °F 45.2 °F 39.2 °F 76% 30.01 in 6.2 mi North 3.5 mph - N/A   Unknown
10:30 PM 50.0 °F - 39.2 °F 66% 30.01 in 6.2 mi North 4.6 mph - N/A   Unknown
11:00 PM 50.0 °F - 37.4 °F 62% 30.01 in 6.2 mi NNW 3.5 mph - N/A   Unknown
11:30 PM 46.4 °F 44.3 °F 37.4 °F 71% 30.01 in 6.2 mi East 4.6 mph - N/A   Unknown